Theta_e
348 353 358 360 374 366 362 357 352 353 355 347 348 356 351 352 356 361 352 348 347 343 343 344 344 345 345 345 348 350 350 350 348 351 350 353 353 342 344 343 347 353 352 353 353 354 354 354 352
356 357 356 360 370 365 361 352 354 362 356 344 343 353 354 354 350 351 351 351 350 350 348 346 346 346 345 346 346 350 353 352 351 351 351 351 354 350 350 351 351 352 352 353 353 354 354 352 344
360 352 352 368 365 368 358 352 351 359 355 343 345 347 352 353 350 350 351 352 351 353 349 348 348 347 347 348 346 347 352 353 350 351 350 350 353 353 353 353 352 351 351 350 354 354 353 350 345
352 348 359 369 370 362 358 356 355 356 352 353 356 356 348 349 350 350 351 351 353 354 349 349 348 347 349 347 342 347 350 353 353 353 353 354 354 354 354 353 354 352 352 351 354 353 353 344 344
340 357 367 367 364 360 354 351 355 357 354 355 356 360 353 349 349 350 350 351 353 351 347 348 348 348 349 344 350 353 353 351 351 354 353 354 354 354 354 355 354 350 353 353 353 354 347 343 344
349 358 367 371 366 357 352 351 348 348 356 357 359 357 351 348 348 349 349 352 352 347 346 347 349 348 345 347 355 352 352 353 351 353 354 355 354 355 351 355 355 350 354 353 353 352 347 343 345
356 362 361 358 364 357 353 351 355 352 356 357 356 359 349 347 348 349 353 353 351 351 349 348 349 353 347 354 346 353 354 352 353 350 355 353 355 355 352 355 353 355 352 354 349 350 343 339 343
353 361 361 357 358 362 352 355 353 350 354 353 353 358 351 347 350 355 354 351 352 352 351 349 349 349 345 349 354 353 353 354 354 354 354 353 354 354 354 348 355 354 355 351 347 345 339 339 341
349 359 363 358 360 358 352 355 350 348 352 355 351 350 347 347 352 353 351 353 353 354 352 351 349 347 344 345 353 353 354 349 350 351 350 346 346 347 350 346 354 354 353 351 349 343 341 335 337
348 354 357 354 353 354 353 353 350 353 356 354 353 348 347 347 346 349 352 352 350 352 352 350 350 352 352 346 348 341 346 346 344 344 352 352 350 351 351 344 355 354 355 348 348 343 340 340 334
344 345 348 354 350 350 350 348 349 352 357 353 352 349 347 346 345 346 350 349 349 350 352 351 350 352 353 353 345 344 347 349 350 347 351 352 351 350 349 344 353 348 350 346 346 345 347 343 339
342 339 345 353 347 353 352 349 348 347 355 350 348 346 345 345 344 345 345 349 348 349 350 351 349 352 353 354 349 347 350 352 349 350 351 350 350 343 347 344 343 344 345 345 346 347 348 341 338
337 336 346 347 347 349 347 344 347 348 353 350 348 347 345 344 345 346 346 346 348 349 350 351 350 350 352 354 352 348 351 353 352 349 351 351 350 350 350 347 349 345 349 350 348 347 347 346 347
336 339 341 349 345 343 344 346 344 349 353 352 351 349 347 345 345 346 346 346 348 349 351 350 350 348 351 353 352 352 352 348 351 349 349 351 351 349 351 350 351 348 349 348 347 343 346 347 346
336 337 339 349 347 344 344 348 345 341 343 354 353 352 351 349 347 347 347 347 346 349 352 352 351 352 354 354 351 351 352 351 349 349 347 349 350 350 350 350 350 349 349 349 347 344 346 345 345
338 338 342 345 349 346 345 348 345 342 347 355 354 353 353 351 349 348 346 347 347 346 351 349 351 352 354 353 352 352 352 351 348 350 348 348 350 353 350 350 350 349 350 348 347 347 344 344 338
338 339 345 346 343 348 346 346 347 343 344 352 356 355 354 353 350 351 348 346 347 347 349 349 348 347 352 350 349 350 349 348 349 349 350 349 348 349 351 350 351 350 348 347 348 347 344 340 337
338 338 342 343 340 338 338 339 350 349 349 354 357 355 355 355 353 352 350 347 347 348 348 350 350 349 350 351 349 347 349 349 349 350 351 349 349 350 347 347 351 351 350 348 348 346 342 340 341
335 336 337 338 339 338 337 337 344 351 351 356 356 355 356 356 352 352 350 349 348 349 348 349 352 350 348 354 350 348 349 350 347 349 351 350 351 351 347 350 350 350 350 348 348 347 346 344 343
332 334 333 335 337 335 339 338 338 339 351 355 355 355 357 355 353 351 350 349 350 352 351 351 350 355 351 353 352 350 348 348 348 347 347 351 352 353 352 350 350 349 350 349 347 347 348 347 345
327 332 331 332 332 331 331 336 337 338 338 352 354 355 356 356 354 351 350 350 352 356 354 354 352 354 354 356 351 351 351 347 348 347 351 350 349 354 354 352 351 350 350 351 350 349 346 348 348
325 327 328 328 327 330 331 331 332 339 337 343 346 355 357 350 354 353 349 350 352 357 356 354 355 356 358 357 356 352 352 352 350 347 350 348 346 347 352 354 353 352 353 352 351 350 348 346 350
322 324 323 326 323 322 326 327 329 335 334 338 350 356 354 347 354 354 351 350 351 357 359 356 356 357 357 357 355 356 353 354 350 347 347 348 346 348 349 350 353 352 351 352 353 352 350 348 340
324 323 322 321 322 321 323 325 325 328 335 339 339 339 353 351 356 354 353 352 352 357 360 362 361 360 359 358 358 358 356 354 354 348 347 351 350 350 352 352 353 354 354 352 350 350 353 352 351
322 320 319 322 323 324 322 325 325 334 331 332 329 332 344 349 356 356 354 353 353 358 361 364 364 364 361 360 357 361 358 357 356 352 348 355 355 352 352 353 355 356 355 354 354 353 354 353 352
321 320 320 324 324 322 322 329 328 332 327 326 328 329 338 341 354 350 352 354 354 358 359 364 365 365 363 361 356 357 362 362 356 357 354 356 356 354 354 354 354 354 356 355 355 355 353 353 353
322 321 320 318 320 320 323 326 332 331 327 327 329 331 342 342 345 344 343 350 355 356 360 362 365 366 365 364 362 360 357 362 364 356 356 357 356 356 356 356 355 356 357 357 357 355 355 355 354
323 322 319 318 324 325 324 327 332 331 331 329 331 334 335 339 344 342 343 340 355 358 359 362 366 366 367 367 367 365 363 360 360 362 357 354 353 357 360 359 357 358 356 355 356 358 358 357 357
323 321 322 317 319 321 325 327 333 335 331 330 337 337 337 350 347 348 351 348 355 356 359 365 367 367 368 368 368 368 367 365 362 359 359 358 354 352 353 358 359 357 355 357 359 358 358 357 358
326 323 321 322 325 322 321 325 331 331 329 336 340 342 346 349 351 348 348 349 348 347 350 361 367 368 368 368 368 368 369 368 366 364 360 363 360 361 362 357 360 359 359 359 359 358 358 358 358
Wind_Speed
7 2 6 7 3 4 4 12 4 12 11 10 14 13 6 6 6 5 38 34 34 33 28 25 22 20 19 18 17 16 14 14 15 15 14 15 15 17 19 20 17 17 17 18 17 17 17 19 18
8 7 4 2 2 3 7 13 11 28 19 15 19 17 17 16 18 24 27 38 33 31 29 26 24 22 20 17 17 16 14 14 14 14 14 14 14 16 16 16 15 16 17 17 17 16 16 17 20
17 24 4 3 3 2 7 11 6 24 24 14 3 4 6 17 19 14 39 37 33 29 28 26 25 23 19 17 16 15 14 14 15 14 13 14 14 16 15 15 16 16 16 17 16 16 16 15 16
6 4 3 3 8 12 11 11 20 14 16 12 17 9 7 27 21 34 42 34 34 30 29 26 24 21 18 16 16 15 14 14 14 14 14 13 15 17 16 17 17 16 16 17 15 16 15 17 17
9 3 4 5 5 1 7 6 14 13 9 12 12 10 20 27 44 46 41 40 38 31 31 27 23 20 17 16 16 13 13 14 15 14 15 14 15 16 17 16 17 17 17 16 15 14 14 16 16
5 2 3 3 1 9 10 11 4 7 15 20 18 16 9 35 38 41 40 39 38 35 31 26 22 20 18 17 14 12 12 14 15 15 16 15 17 17 16 15 16 17 17 18 16 14 14 16 16
7 4 2 6 4 5 2 8 9 5 9 13 19 19 12 17 32 36 43 41 36 34 32 27 23 19 18 17 14 13 14 15 15 15 15 16 17 17 16 16 16 15 15 15 14 14 15 15 15
5 3 3 5 1 6 7 2 4 8 1 18 21 10 16 17 31 41 41 38 35 29 27 26 23 21 19 17 13 14 15 14 14 14 15 16 17 16 15 17 15 15 14 13 12 13 13 13 12
10 4 3 5 4 4 13 10 6 10 6 8 7 19 23 31 41 37 36 36 33 31 28 23 22 19 18 17 15 15 14 14 14 14 15 16 17 15 16 15 15 15 13 12 13 15 14 14 11
4 3 11 9 15 22 11 11 8 6 19 18 21 19 26 25 32 30 33 31 31 32 32 25 23 21 20 16 17 16 15 15 15 15 16 13 15 15 12 15 15 14 12 11 12 13 13 13 14
3 4 7 5 27 23 14 7 12 6 9 21 23 21 16 16 18 27 30 35 36 36 34 30 28 26 23 21 19 17 17 15 14 14 14 14 16 14 17 16 15 14 13 10 12 12 11 10 11
4 9 12 21 26 23 7 10 9 2 15 22 22 20 12 11 10 17 20 32 32 36 36 37 30 30 27 25 18 18 19 17 15 14 15 15 12 15 17 15 15 14 15 13 12 10 8 4 12
8 8 12 17 21 21 16 3 1 6 20 22 21 18 13 12 13 24 26 29 30 35 36 39 30 33 28 24 20 19 19 21 18 17 14 16 12 13 15 14 15 13 15 15 15 10 10 10 11
6 8 5 13 7 5 8 2 4 5 12 19 20 16 15 13 15 21 24 27 32 38 36 38 32 33 28 26 24 21 18 22 22 20 18 18 10 16 16 15 16 15 18 16 15 9 10 11 8
8 9 1 14 7 5 10 6 4 8 2 17 17 15 14 12 21 19 22 27 32 35 34 35 32 32 29 26 21 22 20 20 25 21 18 17 14 15 14 15 17 15 17 20 15 16 15 11 7
13 6 2 9 14 10 5 4 13 11 5 13 17 16 15 14 17 23 20 20 30 32 37 38 32 31 26 20 18 14 15 28 25 21 21 21 17 15 18 11 17 15 23 21 20 21 19 15 11
4 5 3 1 11 11 13 3 14 17 12 11 16 15 14 10 15 24 27 24 22 33 36 36 33 31 23 17 17 16 6 24 25 22 24 19 18 17 16 13 11 18 23 20 20 20 18 17 12
8 7 3 3 1 7 3 6 12 15 16 16 15 16 14 14 13 26 30 30 26 31 36 35 34 29 28 22 19 18 10 9 21 23 22 20 15 13 12 14 13 15 20 18 20 16 15 11 9
8 7 8 7 7 3 3 3 9 16 15 18 17 15 14 14 10 26 30 30 26 31 33 33 28 32 31 25 25 20 17 10 14 16 23 20 16 13 11 15 13 12 16 21 18 16 12 11 11
11 6 9 8 8 5 2 7 6 6 16 21 19 15 15 14 13 19 26 31 30 34 34 32 30 24 29 31 27 24 19 14 14 13 18 21 19 16 15 15 13 15 12 18 19 17 8 11 14
8 3 7 8 7 8 7 9 6 9 6 19 21 20 17 12 14 18 22 28 29 34 37 34 31 27 29 25 27 23 19 19 20 19 22 23 21 22 20 18 17 19 18 20 18 17 12 15 18
5 11 10 9 8 2 3 6 7 8 11 18 15 20 24 18 16 18 21 26 30 33 39 38 34 32 29 27 26 27 23 20 19 25 24 25 22 19 23 21 20 19 18 19 20 21 17 14 18
7 7 8 7 9 8 10 1 11 5 5 5 15 23 22 20 23 22 23 30 32 35 36 40 38 36 34 29 27 25 24 19 22 20 22 26 25 21 23 24 23 22 19 19 16 21 22 22 20
7 6 8 7 2 4 10 4 9 6 7 8 10 8 23 22 24 23 31 31 32 34 35 37 38 39 36 34 30 27 27 26 20 24 25 27 28 27 24 25 25 25 24 23 22 19 21 24 23
8 4 4 5 3 8 9 3 12 1 9 9 7 7 12 12 22 21 22 25 30 34 35 35 38 36 38 34 38 29 29 27 23 24 25 26 29 29 29 29 29 29 27 23 20 20 20 21 20
6 3 5 5 4 7 5 4 11 5 9 8 7 7 16 10 13 8 6 26 31 35 38 35 37 33 38 37 37 38 29 26 30 23 20 23 29 28 26 29 30 30 30 27 21 20 19 21 22
5 4 9 3 6 5 4 8 10 6 8 8 5 12 13 16 11 18 27 20 31 34 39 37 37 34 36 37 36 36 38 30 26 31 25 20 22 24 25 25 32 33 29 23 21 20 22 21 21
6 5 6 4 1 5 9 8 5 5 5 7 9 10 13 9 9 8 2 27 33 32 35 37 38 37 37 34 34 34 35 35 35 24 29 29 26 20 16 15 19 26 28 24 23 21 21 19 21
1 4 4 3 5 3 3 7 4 8 7 9 10 10 11 16 12 14 12 13 9 16 36 30 35 33 32 32 31 29 31 31 32 35 30 29 29 28 26 19 14 21 22 23 24 20 18 16 18
9 10 8 5 8 3 4 7 5 5 8 13 10 11 17 16 11 9 18 35 24 33 21 15 31 32 34 34 30 31 29 30 30 31 35 27 29 25 23 25 22 21 22 23 23 20 19 19 19
Wind_Direction
155 153 316 348 353 62 294 99 22 70 70 55 71 85 70 101 170 155 144 142 146 148 151 148 143 139 133 127 123 122 119 110 105 105 107 106 108 115 102 109 107 100 101 99 103 105 102 99 100
40 308 21 343 333 9 74 66 61 86 67 34 27 52 79 75 102 115 117 135 142 147 148 146 143 141 136 130 125 123 120 115 115 105 106 109 112 116 117 108 107 104 102 104 105 106 102 103 107
19 18 7 312 208 49 89 100 110 112 130 121 57 275 108 114 119 110 132 134 136 139 147 145 143 141 137 132 126 123 119 114 111 112 112 114 116 120 119 116 110 105 105 109 103 104 103 106 101
98 146 286 360 359 7 38 39 61 84 112 113 142 118 119 138 114 129 134 131 137 141 145 144 142 139 136 130 122 117 120 116 116 116 118 115 117 126 125 121 118 114 111 110 107 106 106 103 103
51 95 48 358 344 333 24 24 78 44 96 125 125 98 114 120 130 135 137 139 140 147 145 144 142 140 135 129 124 121 123 122 119 116 111 110 121 126 123 121 119 120 116 110 105 101 106 106 110
26 314 158 123 324 5 335 346 72 93 95 106 107 101 114 133 137 144 143 141 151 147 147 145 143 142 138 130 128 127 124 126 121 116 116 116 124 125 122 122 123 120 115 112 107 107 109 119 117
142 192 271 139 97 78 184 352 341 37 163 133 131 119 135 141 149 136 131 135 140 142 145 145 144 141 140 135 131 125 127 125 122 125 123 123 124 126 127 125 125 122 119 116 112 109 116 125 122
139 140 306 358 335 169 190 22 355 266 61 116 132 140 147 164 134 128 130 132 137 143 145 144 146 146 144 140 136 127 129 132 131 126 126 127 129 128 129 132 126 127 128 126 113 115 112 121 120
160 87 189 207 197 147 147 179 237 218 161 89 123 137 146 165 136 132 132 135 139 146 143 144 147 148 146 147 144 137 136 137 141 134 130 126 130 134 132 134 134 134 136 132 114 116 107 111 113
137 170 188 188 52 17 88 130 327 18 101 102 117 129 152 162 143 141 142 147 149 152 152 152 151 157 160 160 154 148 144 142 139 141 138 142 140 138 138 137 139 138 138 134 125 124 133 119 121
255 66 106 168 92 50 56 32 332 293 124 134 136 146 160 160 150 146 155 153 159 157 159 163 158 160 167 170 160 153 148 146 148 137 146 153 151 156 143 140 151 149 146 141 143 142 138 126 128
345 37 87 107 114 135 192 166 301 330 145 138 140 151 156 167 157 162 157 159 161 160 165 165 165 164 178 179 171 162 169 168 163 167 160 164 179 162 151 160 158 163 152 150 162 180 166 183 200
33 337 87 113 125 153 164 108 250 346 129 136 142 152 164 173 174 171 173 166 166 159 161 170 170 165 179 180 175 174 179 186 178 174 164 174 176 166 164 169 165 166 167 178 170 163 166 150 145
351 305 97 83 81 122 134 290 99 135 122 139 148 160 170 178 186 177 177 174 149 162 163 171 172 173 183 185 179 185 189 186 182 176 171 172 175 191 185 183 189 193 180 188 204 160 156 168 161
282 295 144 137 148 129 101 1 222 233 308 147 157 166 174 185 187 176 181 171 164 166 163 168 175 173 170 179 175 184 187 184 178 179 183 181 170 169 195 193 205 188 188 187 179 174 173 176 186
292 299 280 132 147 179 175 230 246 234 187 173 169 175 178 183 187 179 185 173 171 168 156 166 162 160 165 164 168 186 200 194 183 181 180 180 184 169 176 182 180 179 170 174 175 179 183 190 190
298 244 342 186 178 149 204 189 215 225 206 210 173 175 173 182 183 181 188 182 178 172 162 163 169 178 170 174 185 197 179 189 181 180 180 181 183 194 196 193 166 184 185 181 186 183 189 192 207
296 328 294 22 350 110 121 335 174 195 182 203 171 178 178 186 184 176 181 184 189 177 170 167 173 172 179 182 191 200 205 176 185 183 185 179 179 183 192 194 177 174 185 183 195 190 200 209 218
311 335 351 343 322 37 136 306 186 213 197 186 175 180 179 185 172 172 176 180 180 172 171 171 161 176 178 178 179 191 210 216 197 183 184 183 180 177 176 192 191 197 188 191 200 206 228 223 228
313 357 322 313 300 341 197 242 255 201 192 178 182 178 172 175 165 175 176 176 177 168 170 170 176 169 185 186 181 185 201 207 205 206 195 184 184 187 188 197 200 198 195 197 200 213 231 228 227
321 322 281 268 270 318 334 305 283 264 226 186 182 179 155 174 185 176 183 176 171 167 173 172 177 179 184 188 189 192 200 208 205 205 191 190 190 193 202 205 206 211 212 212 215 213 200 237 239
289 299 314 346 23 301 337 284 290 248 247 201 165 173 165 190 197 176 184 181 174 170 176 179 179 185 184 187 189 197 204 203 204 205 199 195 208 212 207 208 214 213 224 221 227 218 214 207 231
261 337 326 332 342 347 302 38 275 288 260 207 160 182 174 186 196 179 184 184 181 171 173 181 185 189 197 193 200 203 208 211 216 202 204 207 213 219 212 212 217 219 219 219 227 224 219 208 237
331 292 299 307 246 325 253 191 284 262 202 143 184 172 181 191 184 182 181 179 182 175 173 176 180 191 198 202 199 207 209 211 212 213 212 210 211 215 217 216 220 223 223 227 228 231 227 235 245
309 329 322 326 341 237 261 236 241 196 115 140 115 124 155 177 180 176 177 180 179 175 174 176 179 186 198 202 206 205 211 210 213 214 215 213 211 214 221 220 224 229 232 233 236 234 230 234 238
276 185 167 266 286 272 315 319 244 172 122 98 73 44 87 93 98 56 230 181 181 174 178 178 180 183 192 200 206 210 210 213 219 219 223 217 213 216 232 231 229 230 233 236 236 236 237 235 238
266 288 237 282 309 358 292 317 341 153 130 122 96 86 98 114 126 167 239 261 178 174 177 181 181 184 188 197 205 210 217 215 218 225 223 224 221 223 231 236 240 233 228 230 228 231 236 240 242
187 237 16 342 307 288 302 316 253 153 113 110 82 79 116 151 162 201 274 243 184 170 173 180 180 185 190 192 201 207 215 221 221 221 228 230 230 229 237 246 235 232 224 229 231 231 238 240 238
198 246 237 155 156 190 297 290 80 85 101 86 83 67 59 65 70 91 139 314 138 102 167 171 179 183 187 192 198 201 208 220 225 227 228 231 233 237 238 240 226 219 222 225 226 239 244 240 246
221 195 182 133 281 243 172 271 227 119 111 100 92 76 72 65 51 54 87 88 14 23 39 192 180 183 188 192 196 203 209 215 223 228 226 226 231 230 234 237 237 220 221 224 229 241 246 242 240